Location: Владивосток
(43.1151°N, 131.8856°E)
Time: 09:13:10
(UTC+10:00)

FENGYUN 1C DEB - Visible Passes

Search period start: 12 October 2024 00:00
Search period end: 22 October 2024 00:00
Orbit: 750 x 910 km, 98.6° (Epoch: 11 October)

Date Brightness Start Highest point End Pass type
(mag) Time Alt. Az. Time Alt. Az. Time Alt. Az.
12 Oct ? 06:13:47 10° ENE 06:15:57 13° E 06:18:08 10° ESE visible
12 Oct ? 19:17:00 10° S 19:21:50 42° W 19:26:36 10° NNW visible
13 Oct ? 18:58:56 10° S 19:03:59 61° WSW 19:08:58 10° NNW visible
15 Oct ? 20:06:07 10° SW 20:09:03 15° W 20:12:00 10° NW visible
16 Oct ? 06:41:08 10° NE 06:45:18 24° E 06:49:33 10° SSE visible
16 Oct ? 19:47:04 10° SW 19:51:01 23° W 19:54:55 10° NW visible
17 Oct ? 06:23:58 10° NE 06:27:16 17° E 06:30:37 10° SE visible
17 Oct ? 19:28:28 10° SSW 19:32:59 33° W 19:37:29 10° NNW visible
18 Oct ? 06:07:38 10° ENE 06:09:10 11° E 06:10:42 10° ESE visible
18 Oct ? 19:10:07 10° S 19:14:59 48° W 19:19:49 10° NNW visible
19 Oct ? 18:51:59 10° S 18:56:59 71° WSW 19:01:59 10° NNW visible
20 Oct ? 20:18:09 10° WSW 20:19:56 12° W 20:21:42 10° WNW visible
21 Oct ? 06:51:29 10° NE 06:56:06 30° E 07:00:52 10° SSE visible
21 Oct ? 19:58:23 10° SW 20:01:44 18° W 20:05:04 10° NW visible
